Overview Statistics Trail Chart Weather Telemetry Raw packets
 

This is the latest recevied weather packets stored in our database for station/object W0WC. If no packets are shown the sender has not sent any weather packets the latest 10 day(s).

<< 45 46 47 48 49 50 51 >>
Time Temp. Humidity Pressure Rain* Wind** Luminosity Snow
1788379313 37.78° C 34% 1015.4 hPa 0 mm - 707 W/m² -
1788379008 38.33° C 33% 1015.5 hPa 0 mm - 290 W/m² -
1788378708 38.89° C 32% 1015.4 hPa 0 mm - 195 W/m² -
1788378406 38.89° C 33% 1015.7 hPa 0 mm - 752 W/m² -
1788378102 37.78° C 33% 1015.7 hPa 0 mm - 744 W/m² -
1788377798 37.78° C 34% 1015.6 hPa 0 mm - 735 W/m² -
1788377498 37.78° C 34% 1015.9 hPa 0 mm - 723 W/m² -
1788377196 38.33° C 34% 1015.8 hPa 0 mm - 730 W/m² -
1788376891 37.78° C 35% 1015.9 hPa 0 mm - 735 W/m² -
1788376586 37.22° C 35% 1016 hPa 0 mm - 746 W/m² -
1788376285 36.67° C 37% 1015.9 hPa 0 mm - 757 W/m² -
1788375981 36.67° C 38% 1015.9 hPa 0 mm - 783 W/m² -
1788375676 37.22° C 37% 1016.2 hPa 0 mm - 118 W/m² -
1788375372 37.22° C 37% 1016.4 hPa 0 mm - 719 W/m² -
1788375067 37.78° C 35% 1016.4 hPa 0 mm - 721 W/m² -
1788374762 37.22° C 37% 1016.4 hPa 0 mm - 719 W/m² -
1788374457 37.22° C 37% 1016.6 hPa 0 mm - 723 W/m² -
1788374154 37.22° C 37% 1016.7 hPa 0 mm - 727 W/m² -
1788373850 36.67° C 38% 1016.8 hPa 0 mm - 719 W/m² -
1788373546 37.22° C 37% 1017 hPa 0 mm - 721 W/m² -
1788373242 37.22° C 36% 1016.9 hPa 0 mm - 721 W/m² -
1788372938 37.22° C 37% 1017.2 hPa 0 mm - 719 W/m² -
1788372637 36.67° C 38% 1017 hPa 0 mm - 714 W/m² -
1788372332 36.11° C 39% 1016.8 hPa 0 mm - 712 W/m² -
1788372028 36.67° C 39% 1017.3 hPa 0 mm - 713 W/m² -

* Rain latest hour (hover to see other rain measurements)
** Current wind speed in m/s (hover to see current wind gust speed)